{"data":{"norad_id":65018,"epoch":"2026-05-24T16:54:25.194528Z","epoch_age_seconds":97198,"freshness":"FRESH","line1":"1 65018U 25161D   26144.70445827  .00582420  00000+0  17920-1 0  9999","line2":"2 65018  53.1601 301.4348 0003797 274.0127  86.0440 15.31063490 46969","mean_motion":15.3106349,"eccentricity":0.0003797,"inclination_deg":53.1601,"raan_deg":301.4348,"arg_perigee_deg":274.0127,"mean_anomaly_deg":86.044,"bstar":0.01792,"rev_number":4696,"period_min":94.052272123607,"perigee_km":470.03681643587,"apogee_km":475.23929501319,"semimajor_km":6850.7750557245,"source":"CELESTRAK","updated_at":"2026-05-25T13:38:20.666094Z"}}